Weather History for KOJA - October, 2012

Change the Weather History Date:

Wednesday, October 24, 2012

  Actual Average (KJWG) Record (KJWG)
Temperature  
Mean Temperature 72 °F -  
Max Temperature 78 °F 68 °F 83 °F (1960)
Min Temperature 66 °F 45 °F 30 °F (1972)
Cooling Degree Days 7    
Growing Degree Days 22 (Base 50)    
Moisture  
Dew Point 65 °F    
Average Humidity 78    
Maximum Humidity 94    
Minimum Humidity 61    
Precipitation  
Precipitation 0.00 in - - ()
Sea Level Pressure  
Sea Level Pressure 29.80 in    
Wind  
Wind Speed 16 mph (South)    
Max Wind Speed 25 mph    
Max Gust Speed 34 mph    
Visibility 10 miles    
Events      
Averages and records for this station are not official NWS values.
T = Trace of Precipitation, MM = Missing Value Source: NWS Daily Summary

Daily Weather History Graph

Daily Weather History Graph

Search for Another Location

Airport or City:

Trip Planner

Search our weather history database for the weather conditions in past years. The results will help you decide how hot, cold, wet, or windy it might be!

Date:

Astronomy

Oct. 24, 2012 Rise Set
Actual Time 7:49 AM CDT 6:47 PM CDT
Civil Twilight 7:23 AM CDT 7:13 PM CDT
Nautical Twilight 6:53 AM CDT 7:43 PM CDT
Astronomical Twilight 6:24 AM CDT 8:12 PM CDT
Moon 3:55 PM CDT (10/24) 2:56 AM CDT (10/24)
Length of Visible Light 11h 50m
Length of Day
10h 58m
Waxing Gibbous, 76% of the Moon is Illuminated
Oct 24
Waxing Gibbous
Oct 29
Full
Nov 6
Last Quarter
Nov 13
New
Nov 20
First Quarter

Hourly Weather History & Observations

Time (CDT) Temp. Dew Point Humidity Pressure Visibility Wind Dir Wind Speed Gust Speed Precip Events Conditions
12:15 AM 71.6 °F 64.4 °F 78% 29.84 in 10.0 mi South 12.7 mph 18.4 mph N/A   Clear
12:35 AM 71.6 °F 64.4 °F 78% 29.84 in 10.0 mi South 15.0 mph 21.9 mph N/A   Clear
12:55 AM 71.6 °F 64.4 °F 78% 29.85 in 10.0 mi SSW 15.0 mph 21.9 mph N/A   Clear
1:15 AM 71.6 °F 64.4 °F 78% 29.84 in 10.0 mi SSW 13.8 mph - N/A   Clear
1:35 AM 71.6 °F 64.4 °F 78% 29.84 in 10.0 mi SSW 15.0 mph 20.7 mph N/A   Clear
1:55 AM 71.6 °F 64.4 °F 78% 29.85 in 10.0 mi SSW 18.4 mph 24.2 mph N/A   Clear
2:15 AM 71.6 °F 64.4 °F 78% 29.85 in 10.0 mi SSW 17.3 mph 25.3 mph N/A   Clear
2:35 AM 69.8 °F 64.4 °F 83% 29.85 in 10.0 mi SSW 16.1 mph 23.0 mph N/A   Clear
2:55 AM 69.8 °F 64.4 °F 83% 29.85 in 10.0 mi South 16.1 mph 24.2 mph N/A   Clear
3:15 AM 69.8 °F 64.4 °F 83% 29.84 in 10.0 mi South 15.0 mph 23.0 mph N/A   Clear
3:35 AM 68.0 °F 64.4 °F 88% 29.84 in 10.0 mi South 11.5 mph - N/A   Clear
3:55 AM 68.0 °F 64.4 °F 88% 29.84 in 10.0 mi South 12.7 mph 17.3 mph N/A   Clear
4:15 AM 68.0 °F 64.4 °F 88% 29.84 in 10.0 mi South 10.4 mph 16.1 mph N/A   Clear
4:35 AM 68.0 °F 64.4 °F 88% 29.84 in 10.0 mi South 10.4 mph - N/A   Clear
4:55 AM 68.0 °F 64.4 °F 88% 29.84 in 10.0 mi South 9.2 mph - N/A   Clear
5:15 AM 68.0 °F 64.4 °F 88% 29.84 in 10.0 mi South 12.7 mph 18.4 mph N/A   Clear
5:35 AM 68.0 °F 64.4 °F 88% 29.84 in 10.0 mi South 15.0 mph 18.4 mph N/A   Clear
6:15 AM 68.0 °F 64.4 °F 88% 29.84 in 10.0 mi South 15.0 mph 20.7 mph N/A   Clear
6:35 AM 68.0 °F 64.4 °F 88% 29.85 in 10.0 mi SSW 16.1 mph 19.6 mph N/A   Clear
6:55 AM 68.0 °F 64.4 °F 88% 29.85 in 10.0 mi SSW 13.8 mph 19.6 mph N/A   Clear
7:35 AM 68.0 °F 64.4 °F 88% 29.85 in 10.0 mi South 11.5 mph - N/A   Clear
7:55 AM 66.2 °F 64.4 °F 94% 29.86 in 10.0 mi South 11.5 mph 16.1 mph N/A   Clear
8:35 AM 68.0 °F 64.4 °F 88% 29.85 in 10.0 mi South 12.7 mph 19.6 mph N/A   Clear
9:15 AM 68.0 °F 64.4 °F 88% 29.85 in 10.0 mi South 13.8 mph 19.6 mph N/A   Scattered Clouds
9:35 AM 68.0 °F 64.4 °F 88% 29.85 in 10.0 mi South 13.8 mph 23.0 mph N/A   Mostly Cloudy
9:55 AM 68.0 °F 66.2 °F 94% 29.86 in 10.0 mi South 15.0 mph 21.9 mph N/A   Overcast
10:15 AM 69.8 °F 66.2 °F 88% 29.86 in 10.0 mi South 17.3 mph 24.2 mph N/A   Mostly Cloudy
10:35 AM 69.8 °F 66.2 °F 88% 29.85 in 10.0 mi South 15.0 mph 27.6 mph N/A   Mostly Cloudy
10:55 AM 69.8 °F 66.2 °F 88% 29.86 in 10.0 mi South 16.1 mph 28.8 mph N/A   Overcast
11:15 AM 71.6 °F 66.2 °F 83% 29.86 in 10.0 mi South 13.8 mph 29.9 mph N/A   Mostly Cloudy
11:35 AM 71.6 °F 66.2 °F 83% 29.86 in 10.0 mi South 17.3 mph 26.5 mph N/A   Mostly Cloudy
11:55 AM 73.4 °F 66.2 °F 78% 29.86 in 10.0 mi South 17.3 mph 24.2 mph N/A   Mostly Cloudy
12:15 PM 73.4 °F 66.2 °F 78% 29.86 in 10.0 mi South 15.0 mph 28.8 mph N/A   Overcast
12:35 PM 73.4 °F 66.2 °F 78% 29.86 in 10.0 mi South 20.7 mph 27.6 mph N/A   Overcast
12:55 PM 75.2 °F 66.2 °F 73% 29.84 in 10.0 mi South 19.6 mph 27.6 mph N/A   Overcast
1:15 PM 73.4 °F 66.2 °F 78% 29.83 in 10.0 mi SSW 21.9 mph 29.9 mph N/A   Mostly Cloudy
1:35 PM 75.2 °F 66.2 °F 73% 29.82 in 10.0 mi South 23.0 mph 29.9 mph N/A   Mostly Cloudy
1:55 PM 78.8 °F 66.2 °F 65% 29.82 in 10.0 mi South 25.3 mph 34.5 mph N/A   Mostly Cloudy
2:15 PM 77.0 °F 64.4 °F 65% 29.81 in 10.0 mi South 19.6 mph 29.9 mph N/A   Mostly Cloudy
2:35 PM 78.8 °F 66.2 °F 65% 29.80 in 10.0 mi South 20.7 mph 27.6 mph N/A   Mostly Cloudy
2:55 PM 77.0 °F 66.2 °F 69% 29.80 in 10.0 mi South 19.6 mph 29.9 mph N/A   Mostly Cloudy
3:15 PM 78.8 °F 66.2 °F 65% 29.79 in 10.0 mi South 21.9 mph 29.9 mph N/A   Mostly Cloudy
3:35 PM 78.8 °F 66.2 °F 65% 29.78 in 10.0 mi South 20.7 mph 26.5 mph N/A   Mostly Cloudy
3:55 PM 77.0 °F 64.4 °F 65% 29.78 in 10.0 mi South 18.4 mph 26.5 mph N/A   Mostly Cloudy
4:15 PM 77.0 °F 64.4 °F 65% 29.77 in 10.0 mi South 15.0 mph 26.5 mph N/A   Scattered Clouds
4:35 PM 77.0 °F 66.2 °F 69% 29.76 in 10.0 mi South 18.4 mph 23.0 mph N/A   Scattered Clouds
4:55 PM 78.8 °F 64.4 °F 61% 29.76 in 10.0 mi South 19.6 mph 28.8 mph N/A   Mostly Cloudy
5:15 PM 78.8 °F 66.2 °F 65% 29.75 in 10.0 mi South 18.4 mph 25.3 mph N/A   Mostly Cloudy
5:35 PM 78.8 °F 66.2 °F 65% 29.74 in 10.0 mi South 21.9 mph 27.6 mph N/A   Scattered Clouds
5:55 PM 77.0 °F 66.2 °F 69% 29.74 in 10.0 mi South 20.7 mph 29.9 mph N/A   Scattered Clouds
6:15 PM 75.2 °F 64.4 °F 69% 29.74 in 10.0 mi South 17.3 mph 29.9 mph N/A   Clear
6:35 PM 73.4 °F 64.4 °F 73% 29.73 in 10.0 mi SSE 16.1 mph 25.3 mph N/A   Clear
6:55 PM 73.4 °F 64.4 °F 73% 29.73 in 10.0 mi South 20.7 mph 26.5 mph N/A   Clear
7:15 PM 73.4 °F 64.4 °F 73% 29.73 in 10.0 mi SSE 18.4 mph 25.3 mph N/A   Clear
7:55 PM 71.6 °F 64.4 °F 78% 29.73 in 10.0 mi South 18.4 mph 23.0 mph N/A   Clear
8:15 PM 71.6 °F 64.4 °F 78% 29.74 in 10.0 mi South 15.0 mph 21.9 mph N/A   Clear
8:35 PM 71.6 °F 64.4 °F 78% 29.72 in 10.0 mi South 16.1 mph 23.0 mph N/A   Clear
8:55 PM 71.6 °F 64.4 °F 78% 29.72 in 10.0 mi South 18.4 mph 24.2 mph N/A   Clear
9:15 PM 71.6 °F 64.4 °F 78% 29.71 in 10.0 mi South 17.3 mph 24.2 mph N/A   Clear
9:35 PM 71.6 °F 64.4 °F 78% 29.71 in 10.0 mi South 16.1 mph 28.8 mph N/A   Clear
9:55 PM 71.6 °F 64.4 °F 78% 29.72 in 10.0 mi South 16.1 mph 26.5 mph N/A   Clear
10:15 PM 71.6 °F 64.4 °F 78% 29.71 in 10.0 mi South 16.1 mph 21.9 mph N/A   Clear
10:55 PM 71.6 °F 62.6 °F 73% 29.71 in 10.0 mi South 19.6 mph 27.6 mph N/A   Clear
11:15 PM 71.6 °F 60.8 °F 69% 29.71 in 10.0 mi South 20.7 mph 31.1 mph N/A   Clear
11:35 PM 71.6 °F 60.8 °F 69% 29.71 in 10.0 mi South 15.0 mph 24.2 mph N/A   Clear